Location: Aulus
(42.7909°N, 1.3399°E)
Time: 23:41:07
(UTC+00:00)

Cosmos 773 Rocket - Pass Details

Date: 19 May 2025
Orbit: 742 x 772 km, 74.1° (Epoch: 18 June)

Event Time Altitude Azimuth Distance (km) Brightness Sun altitude
Exits shadow 21:51:30 31° 206° (SSW) 1,293 4.9 -21.5°
Maximum altitude 21:54:01 81° 290° (WNW) 759 3.9 -21.7°
Drops below altitude 10° 21:59:09 10° 18° (NNE) 2,264 7.0 -22.1°
Sets 22:01:31 0° 20° (NNE) 3,190 7.8 -22.3°
